Weather in Tikhorechenskoye

Russia / Kaliningrad Oblast     54°47′32″N   20°04′09″E
temp.,
°C
wind,
m/s
gust,
m/s
humid.,
%
clouds,
%
prec.,
mm/h
press.,
hPa
HPBL,
m
24 may, tue
tue2423:00+9e477025 0.0 1012110
02:00+8ese5107861 0.0 1011161
05:00+9ese598528 0.0 1010162
08:00+14se6117456 0.0 1010380
11:00+17sse8115863 0.0 1009962
14:00+18sse71156100 0.0 10091241
17:00+14ssw71282100 0.4 1009617
20:00+13sse71491100 2.1 1010574
25 may, wed
wed2523:00+13s61194100 0.3 1011423
02:00+12ssw479792 0.3 1011211
05:00+12s2297100 0.0 101123
08:00+12ssw1297100 0.3 101261
11:00+13wsw2295100 0.3 1013188
14:00+13wnw3593100 1.3 1013271
17:00+14nw3480100 0.1 1013335
20:00+12nw22874 0.1 101341
26 may, thu
thu2623:00+11sw338277 0.0 101435
02:00+10sw478871 0.0 1013128
05:00+11sw59925 0.0 1012198
08:00+13sw6117817 0.0 1012398
11:00+13wsw7128092 0.1 1011652
14:00+14w915825 0.7 10111024
17:00+13w1116750 0.0 10111073
20:00+12w1016785 0.0 1011880
27 may, fri
fri2723:00+12w10157532 0.1 1012893
02:00+11w914795 0.1 1011893
05:00+10wsw8128290 0.1 1010848
08:00+11sw91182100 0.1 1008720
11:00+11sw8129197 0.2 1006826
14:00+12wnw1115700 0.7 10061426
17:00+11w12167299 0.1 10061422
20:00+11w1116756 0.3 10051312
28 may, sat
sat2823:00+10w111680100 0.5 10041227
02:00+9w11158692 2.2 10031073
05:00+8w12168617 1.1 10021085
08:00+9w121685100 2.6 10021380
11:00+9w131792100 4.9 10021384
14:00+9wnw91289100 8.3 10041006
17:00+11wnw71186100 1.1 1005931
20:00+10nw6990100 1.2 1007612